User: anonymous   Login
Location: Bangkok
(13.7500°N, 100.5170°E)
Time: 05:25:59
(UTC+07:00)
Language:

Cosmos 1898 Rocket - Orbit

View from above orbital plane
View from above orbital plane
View from above satellite
View from above satellite

Ground track
Ground track

The orbit data is extracted from the following two-line orbital elements,

1 18586U 87098B   16182.62079616 -.00000010 +00000-0 +56939-5 0  9994
2 18586 074.0057 222.6790 0021111 358.9341 117.4606 14.36728823496569
Epoch (UTC): 30 June 2016 14:53:56
Eccentricity: 0.0021111
inclination: 74.0057°
perigee height: 754 km
apogee height: 784 km
right ascension of ascending node: 222.6790°
argument of perigee: 358.9341°
revolutions per day: 14.36728823
mean anomaly at epoch: 117.4606°
orbit number at epoch: 49656

The dashed part of the orbit path shows where the satellite is in the earth's shadow,  

DLR